Powrót do katalogu

ONEWEB-0320

AktywnyŁącznośćPO
NORAD 49190·PAYLOAD·🇬🇧 United Kingdom

Wystrzelony Sep 14, 2021 z Baikonur Cosmodrome

Loading…

Następne Przeloty (najbliższe 24 godziny)

TLE

ŚwieżeSource: CelesTrak SupGP

Epoka: Sep 14, 2026, 06:20 UTC

1 49190C 21083E   26257.26406667 -.00002401  00000+0 -60977-2 0  2572
2 49190  87.9161 317.7601 0001924  97.8150  10.7882 13.18690488    13

Śledź ONEWEB-0320 w czasie rzeczywistym z AllMySat

Download on the App Store